Home   Weather   Graz   Past weeks

Flag for Austria Past Weather in Graz, Styria, Austria — Yesterday and Last 2 Weeks

Now
43 °F

Light rain. Fog.


Feels Like: 43 °F
Forecast: 35 / 56 °F
Wind: 1 mph from North

Location: Graz-Thalerhof-Flughafen

Current Time: Apr 28, 2017 at 6:40:46 am

Latest Report: Apr 28, 2017 at 6:20 am


Visibility: 3 mi

Pressure: 29.71 "Hg

Humidity: 93%

Dew Point: 41 °F

Location of GrazLocation

Past Weather in Graz — Graph

°F

Graz Temperature Yesterday

Maximum temperature yesterday: 54 °F (at 12:20 am)
Minimum temperature yesterday: 43 °F (at 10:20 pm)
Average temperature yesterday: 48 °F

High & Low Weather Summary for the Past Weeks

 TemperatureHumidityPressure
High68 °F (Apr 25, 11:50 am)100% (Apr 15, 7:20 am)30.42 "Hg (Apr 15, 7:20 am)
Low23 °F (Apr 21, 6:20 am)23% (Apr 21, 3:20 pm)29.71 "Hg (Apr 26, 1:50 am)
Average48 °F62%29.99 "Hg
* Reported Apr 13 5:20 am — Apr 28 5:20 am, Graz, Weather by CustomWeather, © 2017

Note: Actual official high and low records may vary slightly from our data, if they occured in-between our weather recording intervals... More about our weather records

Advertising

Graz Weather History for the Previous 24 Hours

Scroll right to see more
 ConditionsComfort  
Time TempWeatherWind HumidityBarometerVisibility
5:20 am
Fri, Apr 28
43 °FLight rain. Partly cloudy.2 mph93%29.74 "Hg6 mi
4:50 am43 °FLight rain. Passing clouds.1 mph93%29.71 "Hg4 mi
4:20 am43 °FRain. Passing clouds.1 mph93%29.74 "Hg4 mi
3:50 am43 °FLight rain. Passing clouds.2 mph93%29.74 "Hg6 mi
3:20 am43 °FRain. Partly cloudy.1 mph93%29.74 "Hg3 mi
2:50 am43 °FHeavy rain. Partly cloudy.1 mph93%29.74 "Hg2 mi
2:20 am43 °FRain. Partly cloudy.3 mph93%29.77 "Hg3 mi
1:50 am43 °FLight rain. Partly cloudy.2 mph93%29.77 "Hg4 mi
1:20 am43 °FLight rain. Passing clouds.1 mph93%29.77 "HgN/A
12:50 am43 °FRain. Passing clouds.2 mph93%29.77 "Hg4 mi
12:20 am43 °FRain. Passing clouds.7 mph93%29.80 "HgN/A
11:50 pm
Thu, Apr 27
43 °FLight rain. Passing clouds.5 mph93%29.83 "HgN/A
11:20 pm43 °FLight rain. Passing clouds.5 mph93%29.83 "HgN/A
10:50 pm43 °FLight rain. Partly cloudy.6 mph93%29.86 "Hg6 mi
10:20 pm43 °FLight rain. Partly cloudy.5 mph93%29.86 "HgN/A
9:50 pm45 °FLight rain. Passing clouds.5 mph93%29.86 "HgN/A
9:20 pm45 °FLight rain. Passing clouds.3 mph93%29.86 "HgN/A
8:50 pm45 °FLight rain. Partly cloudy.3 mph93%29.86 "HgN/A
8:20 pm45 °FLight rain. Low clouds.5 mph93%29.86 "HgN/A
7:50 pm45 °FLight rain. Low clouds.7 mph93%29.86 "HgN/A
7:20 pm45 °FLight rain. More clouds than sun.7 mph93%29.86 "Hg5 mi
6:50 pm45 °FLight rain. More clouds than sun.7 mph93%29.86 "Hg5 mi
6:20 pm46 °FLight rain. More clouds than sun.8 mph87%29.86 "Hg5 mi
5:50 pm46 °FLight rain. Mostly cloudy.5 mph93%29.86 "Hg4 mi
5:20 pm46 °FDrizzle. Fog.8 mph93%29.86 "Hg3 mi
4:50 pm46 °FLight rain. Partly sunny.8 mph93%29.86 "Hg5 mi
4:20 pm46 °FLight rain. Partly sunny.7 mph93%29.86 "Hg4 mi
3:50 pm46 °FLight rain. Partly sunny.8 mph93%29.86 "HgN/A
3:20 pm46 °FLight rain. Partly sunny.6 mph93%29.86 "HgN/A
2:50 pm48 °FLight rain. Partly sunny.8 mph82%29.86 "HgN/A
2:20 pm48 °FPartly sunny.7 mph87%29.86 "HgN/A
1:50 pm48 °FLight rain. Partly sunny.7 mph87%29.86 "HgN/A
1:20 pm48 °FPartly sunny.8 mph87%29.86 "HgN/A
12:50 pm48 °FPartly sunny.6 mph87%29.86 "HgN/A
12:20 pm48 °FBroken clouds.6 mph87%29.86 "HgN/A
11:50 am48 °FLight rain. Partly sunny.5 mph87%29.86 "HgN/A
11:20 am48 °FLight rain. Partly sunny.3 mph87%29.86 "HgN/A
10:50 am48 °FLight rain. Broken clouds.3 mph87%29.83 "HgN/A
10:20 am48 °FLight rain. Broken clouds.5 mph87%29.83 "HgN/A
9:50 am48 °FLight rain. Partly sunny.5 mph87%29.83 "Hg6 mi
9:20 am48 °FLight rain. Partly sunny.5 mph87%29.80 "HgN/A
8:50 am46 °FLight rain. Partly sunny.7 mph93%29.80 "HgN/A
8:20 am46 °FRain. Partly sunny.8 mph93%29.80 "HgN/A
7:50 am46 °FRain. Partly sunny.8 mph93%29.77 "Hg4 mi
7:20 am46 °FRain. Broken clouds.8 mph93%29.77 "Hg3 mi
6:50 am46 °FLight rain. Partly sunny.9 mph93%29.74 "Hg4 mi
6:20 am46 °FSprinkles. Partly sunny.9 mph93%29.74 "Hg4 mi
Weather by CustomWeather, © 2017

See weather overviewHow to use our weather pages